Theta_e
325 318 313 308 296 292 290 295 298 300 303 317 322 318 320 322 323 314 345 358 360 359 362 364 365 364 364 363 362 361 361 361 361 360 360 361 361 361 361 361 362 361 360 360 359 359 356 353 350
323 318 308 298 291 287 289 295 297 298 303 309 318 319 320 321 330 346 350 359 360 359 361 362 366 364 363 362 361 361 361 361 360 360 360 360 360 360 361 361 362 360 359 359 358 357 354 351 349
313 314 302 293 288 287 289 294 298 303 304 304 312 319 320 321 329 346 347 359 359 358 359 361 366 364 363 361 360 360 360 360 360 361 360 360 360 361 361 361 362 360 359 359 357 355 352 350 348
309 304 299 294 290 293 293 298 299 299 302 303 313 313 319 323 327 336 359 359 357 357 358 364 365 364 363 360 359 360 360 360 360 360 359 360 360 360 360 361 362 361 359 358 356 354 353 351 349
301 298 292 289 291 294 297 298 298 298 300 305 308 311 314 317 319 356 356 357 353 354 358 362 364 364 363 361 360 360 360 360 360 360 359 359 359 360 360 360 361 360 358 357 356 354 354 352 349
297 294 288 287 290 296 296 297 299 298 301 302 307 305 305 310 321 345 355 352 356 355 358 360 364 364 363 362 360 360 360 360 360 360 359 359 359 359 360 359 360 359 359 357 355 353 352 349 348
294 290 287 288 291 292 296 298 297 298 297 300 303 301 304 308 322 350 354 355 355 356 357 358 360 362 363 361 360 360 359 359 359 359 358 358 358 358 358 359 359 359 358 357 355 353 351 349 348
296 292 289 287 290 289 296 298 296 298 299 304 305 299 298 305 309 347 354 354 351 354 355 355 358 358 358 358 361 360 359 359 359 359 359 358 358 358 358 356 358 358 358 357 356 354 351 350 349
295 289 287 288 291 293 295 295 299 302 300 301 303 302 305 308 308 326 339 348 349 351 350 353 357 356 357 356 358 360 359 359 359 358 358 356 352 353 355 355 357 358 358 357 356 354 351 350 350
291 286 288 292 293 291 293 294 297 299 298 299 301 304 306 306 306 304 309 341 343 346 348 350 353 354 354 357 354 355 355 355 354 354 353 352 352 349 353 354 357 358 358 357 357 354 353 351 340
290 288 291 295 296 297 296 296 297 296 295 298 299 301 303 305 304 304 304 321 345 346 346 349 350 350 352 353 355 353 354 353 353 353 352 351 349 348 349 347 349 350 355 349 349 346 344 341 338
292 294 294 295 297 295 295 298 297 296 299 302 303 302 302 302 302 303 304 305 307 337 348 346 347 348 350 350 353 351 350 350 349 351 349 347 345 345 344 342 341 344 345 344 341 339 339 338 337
290 294 297 298 297 295 297 296 295 296 301 302 301 302 302 303 302 301 304 304 305 336 348 347 344 345 345 347 350 350 350 348 347 347 349 347 345 341 338 339 339 340 341 339 338 336 335 334 334
294 295 297 297 297 295 295 296 296 299 301 301 301 301 301 302 302 302 301 303 303 314 335 349 344 344 342 345 347 347 348 348 347 348 348 347 345 340 337 337 337 338 339 339 337 335 333 332 334
297 294 295 296 295 295 296 293 294 299 300 300 300 299 301 302 304 303 305 302 302 303 307 341 348 344 343 342 343 343 345 348 346 347 347 348 345 340 338 337 337 339 339 338 336 335 334 332 334
293 291 286 294 295 296 294 288 295 299 297 297 300 301 301 301 302 304 304 302 303 302 308 323 349 344 344 343 342 339 340 342 341 342 342 344 345 341 337 336 337 340 339 338 336 335 334 334 334
288 284 285 288 293 292 290 288 295 298 297 296 297 299 300 301 302 303 304 303 303 303 306 312 335 343 344 345 344 341 339 340 339 340 341 340 343 342 336 336 338 339 339 335 336 336 335 334 335
284 282 284 286 291 291 291 290 294 297 297 296 297 297 298 300 301 305 305 306 305 304 304 310 317 340 340 339 338 339 340 342 343 343 344 343 341 341 338 337 337 337 335 334 332 333 335 335 336
288 286 287 289 293 290 290 291 293 297 296 295 295 295 297 300 303 303 304 306 306 304 304 307 311 329 337 336 335 335 337 336 337 341 345 345 345 341 340 339 338 337 336 335 334 334 336 332 332
290 288 288 290 293 291 291 291 294 295 295 296 296 300 302 302 305 305 306 305 304 307 306 306 314 318 333 331 335 335 335 334 336 336 340 343 343 343 343 340 337 338 336 334 335 337 332 329 328
289 288 287 287 292 292 290 287 290 294 296 300 303 304 305 305 305 306 306 303 303 304 306 306 311 316 322 327 333 334 334 335 332 331 330 335 341 341 340 341 339 337 336 335 334 337 333 326 324
286 292 292 291 287 283 289 280 286 291 295 298 302 303 303 305 307 308 308 308 304 305 307 309 310 316 320 327 329 329 325 324 327 329 332 333 336 339 341 341 339 337 338 337 337 340 334 326 323
289 294 292 291 286 283 284 281 285 292 293 296 300 303 304 306 306 307 308 308 309 307 307 310 314 316 319 323 323 322 321 323 326 329 331 333 335 340 342 340 338 337 335 334 336 336 331 327 323
296 291 288 285 282 277 283 283 282 287 293 297 301 303 305 305 306 308 308 309 310 309 311 314 315 314 314 316 319 318 317 319 323 327 328 330 332 340 340 340 339 336 336 336 334 330 328 322 322
292 284 277 276 276 276 285 283 285 292 298 300 301 302 305 305 305 306 306 306 307 309 312 314 313 314 316 320 323 323 322 321 323 326 327 326 330 336 338 340 338 333 335 329 325 321 319 318 319
287 285 277 275 274 279 286 280 285 298 302 303 305 304 305 307 306 306 305 305 305 308 310 312 311 311 317 322 322 327 328 327 326 328 329 328 328 334 339 337 332 327 324 321 319 318 318 317 314
287 283 287 281 281 276 281 286 292 298 298 301 303 305 306 306 307 308 308 304 304 305 307 308 310 312 313 313 315 316 321 326 327 327 329 328 327 333 339 336 330 324 320 320 319 317 314 313 312
291 291 281 278 273 274 279 282 284 291 295 298 300 301 302 307 308 308 308 309 306 306 307 308 308 308 310 313 313 316 316 320 326 326 327 326 330 332 333 333 325 321 320 317 315 312 310 308 307
287 285 284 283 281 274 276 280 290 294 297 295 298 300 301 305 307 307 308 311 308 310 308 307 308 309 310 311 313 315 318 322 326 325 327 330 328 325 322 320 318 318 316 315 313 311 309 306 305
290 287 286 279 277 282 281 281 293 292 299 298 298 300 301 303 308 308 309 309 309 306 305 306 307 308 310 312 316 319 321 322 322 326 325 324 321 320 319 318 318 317 314 312 310 308 306 304 303
Wind_Speed
8 7 1 5 4 6 2 4 3 9 9 11 4 6 10 3 1 4 5 7 9 12 10 11 13 13 12 15 16 17 17 16 17 18 18 17 16 16 14 13 13 13 13 12 11 10 9 7 6
5 4 5 3 5 3 5 5 7 3 4 7 8 4 7 2 3 2 2 4 7 11 8 11 14 14 14 14 14 15 18 18 17 18 18 18 17 16 15 14 13 13 13 12 11 9 8 7 6
4 4 5 5 3 3 3 3 10 17 11 6 2 3 5 2 3 6 2 9 7 6 6 9 15 14 14 14 13 12 13 15 17 17 17 17 16 15 14 13 12 12 12 12 11 9 8 7 6
3 5 5 5 2 3 2 8 9 11 9 2 4 6 3 4 4 2 10 10 9 6 5 10 14 15 14 15 15 13 14 14 14 15 15 16 16 15 13 13 11 11 11 10 9 8 7 6 5
4 3 5 3 3 3 4 5 8 8 8 8 2 1 4 5 7 7 9 9 8 7 5 8 12 14 15 17 16 14 13 13 14 14 15 15 14 14 14 13 11 11 11 10 9 8 6 6 7
5 3 5 1 3 5 4 6 7 6 9 10 8 4 3 4 5 2 6 6 5 6 6 7 13 13 14 14 15 14 13 12 13 13 14 14 14 13 13 13 12 10 10 10 9 8 7 8 8
7 5 3 2 2 3 4 9 5 7 4 10 7 2 4 9 10 3 6 6 6 5 6 6 7 10 13 13 14 14 14 13 13 13 13 13 13 12 12 11 11 10 9 8 8 8 8 9 7
6 5 2 2 1 4 3 8 1 5 4 9 6 6 4 8 9 8 6 5 3 4 4 4 5 6 6 7 12 13 14 13 13 12 12 12 12 12 10 9 10 11 10 9 9 9 9 9 8
3 6 1 2 2 6 4 5 4 4 5 3 3 3 3 9 8 6 4 3 3 3 4 4 8 9 8 6 9 11 14 13 13 11 11 8 4 6 9 8 10 11 11 10 10 9 9 10 9
5 4 6 4 2 4 3 3 4 3 8 5 3 4 1 4 5 5 4 4 4 5 6 6 6 8 8 6 5 6 6 5 6 6 6 5 6 4 6 8 11 11 11 10 10 10 10 10 4
1 2 2 3 4 6 8 6 1 1 5 7 10 11 5 2 6 7 3 5 8 6 4 7 6 6 7 5 5 4 4 5 6 7 9 8 6 4 3 2 3 3 8 3 4 5 4 5 4
2 1 2 4 3 4 5 8 10 2 11 7 10 9 6 6 7 8 9 7 6 7 10 7 8 8 8 4 7 7 7 6 5 7 10 8 4 6 3 3 3 3 2 4 4 3 4 6 6
3 4 6 6 7 5 1 6 6 7 14 9 9 10 11 11 10 7 9 8 8 8 9 10 8 9 8 7 6 7 7 5 6 6 8 8 7 6 4 4 3 3 2 3 4 4 4 5 5
3 5 9 7 10 5 5 7 4 11 8 8 9 12 11 11 12 9 6 10 7 8 9 10 10 10 8 9 9 8 7 7 6 6 9 12 6 5 5 4 4 4 4 4 4 4 4 6 3
6 8 11 6 7 5 6 9 11 11 12 15 14 9 10 11 12 12 13 10 10 8 9 10 12 8 9 9 7 6 6 6 6 7 7 10 8 7 7 5 4 5 4 6 4 5 4 5 3
5 5 3 8 7 7 5 11 6 11 9 14 18 14 12 13 11 11 11 11 11 7 10 9 9 8 8 9 8 6 6 7 6 5 4 8 8 8 6 5 5 6 4 4 4 4 4 5 4
7 3 4 7 5 4 0 8 8 12 9 11 12 14 15 12 12 11 12 10 11 10 10 9 9 9 12 11 6 7 5 5 5 5 5 8 8 8 6 6 6 6 5 4 4 4 4 3 3
5 4 6 7 6 2 8 9 8 13 8 14 13 13 12 13 14 16 14 12 12 10 9 9 7 10 9 4 2 2 3 3 3 5 5 7 5 7 6 6 7 5 4 4 3 5 3 2 3
4 5 7 6 6 4 9 10 12 14 9 11 10 10 12 14 17 12 13 14 10 8 6 9 8 10 6 3 3 3 4 3 3 4 5 5 6 7 7 5 5 4 8 9 6 4 4 2 2
5 4 9 6 5 4 11 14 15 8 9 5 6 9 11 13 16 13 16 15 11 14 12 9 10 7 7 4 3 3 3 2 2 2 5 7 8 6 5 4 4 5 3 5 6 5 3 2 2
5 6 4 7 6 6 8 9 4 8 4 8 9 8 8 9 12 16 16 12 8 9 10 10 12 11 8 7 4 3 3 3 1 3 3 4 6 6 7 5 5 4 2 2 5 5 7 4 2
4 3 4 7 5 10 4 9 5 5 7 9 12 12 12 13 14 14 18 21 15 11 7 8 8 9 8 8 5 6 5 4 4 2 2 4 5 8 9 10 11 7 5 4 5 5 4 5 4
6 4 7 8 5 2 6 2 8 6 6 7 10 13 14 14 13 16 19 21 22 8 1 2 2 3 6 9 7 5 4 3 2 1 2 4 4 5 7 9 9 12 8 6 5 5 4 3 3
5 5 3 5 2 2 4 3 5 4 3 4 7 12 14 15 17 19 19 21 16 9 6 6 8 5 6 7 4 2 3 4 1 0 2 4 2 5 9 9 8 8 8 7 5 6 3 4 3
9 8 7 7 5 6 2 5 10 3 2 1 5 9 11 11 16 17 19 17 17 15 13 10 9 5 3 6 6 6 5 5 6 3 3 4 3 3 6 9 8 4 3 5 6 6 7 4 3
3 6 6 6 4 13 7 7 6 4 4 3 5 6 7 15 15 16 13 11 13 14 15 14 11 9 9 5 1 4 6 4 4 5 4 4 4 5 6 8 6 7 8 9 9 5 6 7 7
3 3 4 3 4 4 4 7 4 2 3 3 6 6 8 4 12 18 17 11 8 11 11 10 11 12 11 8 6 4 2 3 4 6 5 4 3 4 7 7 8 10 10 12 12 10 8 9 7
6 5 3 3 4 5 5 9 10 3 3 5 6 7 9 4 6 17 19 13 7 6 6 8 8 8 6 8 7 5 6 5 3 4 5 3 3 2 4 8 7 9 12 14 14 11 12 12 7
4 1 3 2 4 4 6 9 5 7 5 6 8 6 8 7 6 1 19 11 10 4 5 6 8 9 10 8 7 7 6 5 2 3 1 2 2 3 5 6 8 10 12 14 13 13 11 15 12
6 7 7 5 6 5 5 16 8 10 6 6 12 12 10 8 8 6 13 15 5 2 5 6 6 7 6 6 7 7 6 5 1 1 2 4 5 7 7 8 9 12 14 14 15 14 11 13 10
Wind_Direction
323 310 253 39 38 58 356 271 272 3 11 333 272 103 118 150 62 233 319 164 133 145 155 153 152 156 148 137 136 136 136 134 133 132 132 131 131 132 130 131 134 141 145 149 153 153 157 156 160
325 333 37 70 78 40 291 288 350 244 255 279 307 30 55 75 96 270 303 137 144 145 157 153 155 158 154 146 145 145 144 144 143 140 140 138 138 139 140 142 145 150 153 156 161 165 169 169 178
314 35 72 85 100 163 232 300 293 307 298 222 201 78 127 151 124 180 204 135 130 148 153 158 156 157 158 153 149 147 147 149 149 147 146 142 142 145 147 149 154 160 163 164 169 175 184 187 196
21 13 32 81 225 254 249 310 316 313 335 27 147 78 35 13 342 190 133 140 144 149 149 161 158 158 160 155 155 158 158 155 152 153 150 150 151 151 152 155 162 168 170 174 176 183 197 211 222
35 53 59 59 282 281 291 307 319 348 351 338 319 62 53 9 347 107 128 142 152 143 145 157 162 163 164 160 162 164 165 164 162 160 159 158 159 158 161 162 165 173 179 184 189 195 209 226 236
42 93 63 212 267 302 323 334 329 26 337 344 30 41 349 329 352 155 137 134 137 150 150 162 169 169 169 166 164 167 169 172 168 167 166 167 168 173 169 171 171 183 187 192 197 207 221 235 245
107 79 184 229 296 335 352 326 38 330 354 352 311 63 291 29 354 143 118 106 132 154 159 163 169 175 172 170 169 169 171 174 175 175 174 174 178 182 183 178 180 188 197 199 212 218 229 249 259
109 94 36 314 13 287 311 345 10 22 314 305 353 12 347 309 321 22 25 87 108 134 161 170 167 167 163 167 174 176 176 175 177 180 181 181 186 192 195 194 191 195 202 210 220 229 244 255 266
88 59 329 268 16 282 290 17 315 294 355 339 9 116 283 315 34 66 356 26 107 177 201 187 178 179 175 170 180 182 185 182 179 181 187 184 191 199 207 209 213 209 213 220 230 241 251 262 269
82 108 219 224 298 278 282 3 292 6 341 319 311 218 267 318 2 73 312 223 242 225 221 201 193 184 175 182 179 172 186 183 186 179 175 177 206 210 207 218 224 226 228 232 242 252 259 270 275
26 169 318 329 303 326 327 319 298 72 320 274 290 296 311 267 330 322 185 227 229 220 214 214 188 181 174 176 180 192 187 191 193 191 195 198 209 209 211 218 231 222 238 251 272 281 278 280 284
89 349 113 293 301 316 294 309 317 240 249 225 261 271 296 270 261 273 286 203 237 220 220 211 198 188 194 168 185 198 200 196 189 197 203 202 198 203 208 214 224 228 224 242 246 264 272 276 273
58 304 303 291 313 264 248 266 229 261 272 288 276 286 287 292 291 229 247 271 218 214 221 214 193 195 196 183 183 187 199 202 197 186 206 207 205 198 183 214 212 223 213 230 250 261 271 273 273
277 303 320 320 308 295 358 310 41 281 293 259 278 271 276 280 274 289 251 237 242 231 212 219 211 202 178 191 189 192 188 194 193 199 210 213 201 198 194 199 209 222 206 217 228 240 258 264 267
345 353 348 352 336 306 351 348 328 307 337 322 313 280 261 262 276 256 257 253 226 214 227 209 209 198 189 197 201 192 197 186 207 212 204 207 196 199 199 195 195 217 207 219 220 235 248 267 250
5 56 39 301 335 295 60 294 292 305 314 305 309 305 293 282 258 272 260 235 243 229 210 218 192 183 195 199 199 192 197 189 195 198 198 212 210 208 201 200 202 212 198 206 219 226 244 249 252
3 249 268 298 244 271 138 279 276 284 281 280 279 284 287 283 284 275 261 242 248 216 207 213 195 194 203 208 201 198 193 185 180 190 210 204 206 204 207 218 219 210 211 199 213 236 208 238 242
262 276 260 263 269 244 288 266 277 282 279 273 274 275 281 283 265 269 266 257 237 239 212 209 203 205 183 156 165 148 195 213 195 194 192 202 195 191 197 227 230 212 207 216 181 217 195 240 213
232 227 254 239 251 310 267 290 288 289 285 283 294 304 300 295 291 286 270 259 245 243 235 207 191 211 160 148 171 190 208 196 208 216 212 189 180 215 219 218 219 220 216 216 196 184 185 225 181
234 281 290 293 272 290 286 293 283 284 268 304 317 319 329 332 324 303 315 270 240 231 222 197 200 191 187 170 169 155 158 171 176 185 222 220 220 177 219 212 236 234 249 235 187 166 151 185 144
301 254 269 271 297 242 297 286 269 305 317 18 356 320 318 336 321 326 326 297 267 244 216 201 203 195 199 174 114 88 78 81 52 241 251 235 211 191 185 164 199 221 183 219 270 181 170 170 191
302 252 273 287 322 302 115 292 301 312 330 21 348 341 331 340 333 336 350 346 321 247 214 218 207 188 191 156 144 171 167 170 223 174 217 280 224 218 212 207 208 194 170 223 253 235 183 138 182
242 303 255 261 238 18 320 358 268 352 335 349 338 340 353 354 5 353 359 355 337 312 333 344 336 183 166 168 169 167 173 213 109 83 308 282 259 228 218 207 204 215 202 201 191 237 188 151 164
300 329 307 37 61 34 231 88 272 298 278 318 333 342 345 355 4 3 356 0 347 354 47 73 79 82 81 79 47 353 346 40 329 283 284 283 244 238 222 217 209 189 185 183 180 129 166 159 192
23 34 333 345 357 235 234 310 246 291 200 63 309 320 322 340 2 1 5 355 345 11 12 30 35 37 78 126 136 145 191 205 228 216 245 290 259 213 236 214 198 190 179 96 94 100 110 123 157
295 135 149 288 275 290 288 245 254 216 198 212 292 306 336 355 354 350 344 352 350 356 20 25 28 23 23 40 108 213 208 197 210 212 207 248 235 236 212 213 158 133 121 109 97 71 88 101 82
292 240 190 238 227 330 250 297 306 50 354 307 297 312 306 15 333 328 335 335 350 354 2 11 26 32 32 18 11 20 354 255 226 221 218 232 253 244 219 192 165 148 136 125 116 109 94 91 83
184 172 12 1 295 283 292 286 261 199 263 282 312 310 302 306 10 323 313 315 321 342 346 16 19 30 12 21 8 1 341 334 219 221 225 262 296 199 186 166 155 137 128 117 111 107 101 96 73
283 286 101 163 168 207 306 269 226 234 233 286 296 289 280 247 201 147 293 289 282 288 350 35 25 32 14 0 349 347 340 324 151 189 207 233 102 109 94 113 117 117 118 114 105 103 101 107 94
168 201 156 139 257 221 249 265 257 268 243 279 307 306 299 246 218 210 261 292 260 13 11 50 32 27 19 356 356 352 348 334 141 136 101 74 80 81 90 99 111 106 99 96 100 103 103 90 103